Weather History for Honolulu, HI

Change the Weather History Date:

Monday, March 12, 2012

  Actual Average Record
Temperature  
Mean Temperature 74 °F 74 °F  
Max Temperature 79 °F 81 °F 86 °F (1961)
Min Temperature 69 °F 67 °F 55 °F (1976)
Degree Days  
Heating Degree Days 0 0  
Month to date heating degree days 0 0  
Since 1 July heating degree days 0 0  
Cooling Degree Days 9 9  
Month to date cooling degree days 96 107  
Year to date cooling degree days 642 589  
Growing Degree Days 24 (Base 50)    
Moisture  
Dew Point 62 °F    
Average Humidity 69    
Maximum Humidity 90    
Minimum Humidity 48    
Precipitation  
Precipitation T in 0.08 in 1.52 in (1974)
Month to date precipitation 5.48 0.85  
Year to date precipitation 7.18 5.15  
Snow  
Snow 0.00 in - - ()
Month to date snowfall 0.0  
Since 1 July snowfall 0.0  
Snow Depth 0.00 in    
Sea Level Pressure  
Sea Level Pressure 30.11 in    
Wind  
Wind Speed 13 mph (NE)    
Max Wind Speed 22 mph    
Max Gust Speed 29 mph    
Visibility 10 miles    
Events Rain    
T = Trace of Precipitation, MM = Missing Value Source: NWS Daily Summary

Daily Weather History Graph

Daily Weather History Graph

Search for Another Location

Airport:

Trip Planner

Search our weather history database for the weather conditions in past years. The results will help you decide how hot, cold, wet, or windy it might be!

Date:

Astronomy

Mar. 12, 2012 Rise Set
Actual Time 6:42 AM HST 6:40 PM HST
Civil Twilight 6:20 AM HST 7:02 PM HST
Nautical Twilight 5:54 AM HST 7:28 PM HST
Astronomical Twilight 5:28 AM HST 7:54 PM HST
Moon 11:38 PM HST (3/12) 9:57 AM HST (3/12)
Length of Visible Light 12h 42m
Length of Day
11h 58m
Waning Gibbous, 74% of the Moon is Illuminated
Mar 12
Waning Gibbous
Mar 14
Last Quarter
Mar 22
New
Mar 30
First Quarter
Apr 6
Full

Hourly Weather History & Observations

Time (HST) Temp. Dew Point Humidity Pressure Visibility Wind Dir Wind Speed Gust Speed Precip Events Conditions
12:53 AM 71.1 °F 66.0 °F 84% 30.14 in 10.0 mi NE 8.1 mph - N/A   Mostly Cloudy
1:53 AM 70.0 °F 66.0 °F 87% 30.11 in 10.0 mi NE 11.5 mph 18.4 mph N/A   Mostly Cloudy
2:53 AM 70.0 °F 66.9 °F 90% 30.09 in 7.0 mi NE 10.4 mph - 0.00 in Rain Light Rain
3:50 AM 69.8 °F 64.4 °F 83% 30.09 in 8.0 mi NE 15.0 mph 21.9 mph 0.00 in Rain Light Rain
3:53 AM 70.0 °F 64.9 °F 84% 30.09 in 7.0 mi NE 16.1 mph 21.9 mph 0.00 in Rain Light Rain
4:53 AM 71.1 °F 64.9 °F 81% 30.10 in 9.0 mi NE 11.5 mph - 0.00 in Rain Light Rain
5:53 AM 70.0 °F 64.9 °F 84% 30.12 in 9.0 mi NE 10.4 mph - 0.00 in Rain Light Rain
6:53 AM 70.0 °F 64.9 °F 84% 30.13 in 9.0 mi North 8.1 mph - 0.00 in Rain Light Rain
7:53 AM 71.1 °F 64.0 °F 78% 30.14 in 10.0 mi NNE 13.8 mph - 0.00 in   Mostly Cloudy
8:53 AM 73.9 °F 63.0 °F 68% 30.16 in 10.0 mi NE 15.0 mph 21.9 mph N/A   Mostly Cloudy
9:53 AM 75.9 °F 60.1 °F 58% 30.16 in 10.0 mi NE 13.8 mph - N/A   Mostly Cloudy
10:53 AM 78.1 °F 57.0 °F 48% 30.16 in 10.0 mi NE 13.8 mph 21.9 mph N/A   Scattered Clouds
11:53 AM 79.0 °F 59.0 °F 50% 30.13 in 10.0 mi ENE 18.4 mph - N/A   Scattered Clouds
12:53 PM 78.1 °F 60.1 °F 54% 30.12 in 10.0 mi NNE 16.1 mph 27.6 mph N/A   Scattered Clouds
1:53 PM 77.0 °F 62.1 °F 60% 30.10 in 10.0 mi ENE 17.3 mph 24.2 mph 0.00 in   Mostly Cloudy
2:53 PM 77.0 °F 62.1 °F 60% 30.08 in 10.0 mi NNE 19.6 mph - N/A   Mostly Cloudy
3:53 PM 75.0 °F 62.1 °F 64% 30.09 in 10.0 mi ENE 15.0 mph - N/A   Mostly Cloudy
4:53 PM 73.0 °F 61.0 °F 66% 30.09 in 10.0 mi ENE 17.3 mph 25.3 mph 0.00 in   Mostly Cloudy
5:53 PM 72.0 °F 61.0 °F 68% 30.09 in 10.0 mi ENE 12.7 mph - N/A   Scattered Clouds
6:53 PM 71.1 °F 61.0 °F 70% 30.10 in 10.0 mi NE 15.0 mph - 0.00 in   Scattered Clouds
7:53 PM 71.1 °F 60.1 °F 68% 30.10 in 10.0 mi ENE 18.4 mph 23.0 mph 0.00 in   Scattered Clouds
8:53 PM 71.1 °F 60.1 °F 68% 30.12 in 10.0 mi ENE 12.7 mph - N/A   Scattered Clouds
9:53 PM 71.1 °F 61.0 °F 70% 30.13 in 10.0 mi NE 10.4 mph - N/A   Scattered Clouds
10:53 PM 71.1 °F 60.1 °F 68% 30.12 in 10.0 mi NE 4.6 mph - 0.00 in   Scattered Clouds
11:53 PM 72.0 °F 59.0 °F 64% 30.11 in 10.0 mi NE 9.2 mph - N/A   Mostly Cloudy